Regional Weather Roundup
Issued by NWS Goodland, KS

Home | Current Version | Previous Version | Text Only | Print | Product List | Glossary Off
Versions: 1 2 3 4 5 6 7 8 9 10 11 12 13 14 15 16 17 18 19 20 21 22 23 24 25 26 27 28 29 30 31 32 33 34 35 36 37 38 39 40 41 42 43 44 45 46 47 48 49 50

000
ASUS43 KGLD 251059
RWRGLD

GOODLAND FORECAST AREA HOURLY WEATHER ROUNDUP
NATIONAL WEATHER SERVICE GOODLAND KS
500 AM MDT SAT OCT 25 2014

...OFFICIAL OBSERVATIONS...

CITY           SKY/WX    TMP DP  RH WIND       PRES   REMARKS
GOODLAND KS    CLEAR     45  34  65 W6        30.12S
HILL CITY KS   CLEAR     45  40  82 CALM      30.06R
IMPERIAL NEB   CLEAR     43  33  68 NW5       30.10R
MCCOOK NEB     CLEAR     40  35  83 SW6       30.08R
AKRON CO       PTCLDY    45  28  51 W12       30.15F
BURLINGTON CO  CLEAR     46  32  58 W8        30.13S
LIMON CO       NOT AVBL
$$

...UNOFFICIAL OBSERVATIONS...

CITY           SKY/WX    TMP DP  RH WIND       PRES   REMARKS
COLBY KS       CLEAR     46  37  71 W7        30.09S
NORTON KS      CLEAR     41  32  70 W5        30.05S
SHARON SPRINGS   N/A     51  39  63 SW8         N/A
KIT CARSON CO    N/A     45  33  62 CALM        N/A
YUMA CO          N/A     41  30  64 W5          N/A
$$



USA.gov is the U.S. government's official web portal to all federal, state and local government web resources and services.